Location: Lafig�re
(44.4503°N, 4.0357°E)
Time: 02:57:53
(UTC+00:00)

Transit 4A - Pass Details

Date: 30 January 2021
Orbit: 866 x 978 km, 66.8° (Epoch: 02 March)

Event Time Altitude Azimuth Distance (km) Brightness Sun altitude
Rises 23:53:03 0° 331° (NNW) 3,646 - -63.2°
Reaches altitude 10° 23:56:51 10° 353° (N) 2,676 - -63.2°
Maximum altitude 00:00:27 16° 29° (NNE) 2,270 - -63.2°
Drops below altitude 10° 00:04:00 10° 65° (ENE) 2,626 - -63.2°
Sets 00:07:39 0° 87° (E) 3,540 - -63.1°
